Lewisville's Hourly Summary for Friday, March 17, 2017
Hour Temp
(f)
RH
(%)
Solar Rad.
(MJ/m2)
Rainfall
(in)
Wind
(mph)
3/17/2017 12:00 AM 66 79 0 0 7.99
3/17/2017 1:00 AM 65 82 0 0 5.49
3/17/2017 2:00 AM 67 78 0 0 10.84
3/17/2017 3:00 AM 66 79 0 0 12.52
3/17/2017 4:00 AM 66 80 0 0 11.56
3/17/2017 5:00 AM 67 77 0 0 12.17
3/17/2017 6:00 AM 67 76 0 0 11.96
3/17/2017 7:00 AM 67 76 0 0 11.9
3/17/2017 8:00 AM 68 74 0.01 0 12.33
3/17/2017 9:00 AM 68 74 0.19 0 12.34
3/17/2017 10:00 AM 69 73 0.46 0 12.86
3/17/2017 11:00 AM 70 71 0.78 0 14.42
3/17/2017 12:00 PM 71 68 1.16 0 14.88
3/17/2017 1:00 PM 72 66 1.11 0 14.92
3/17/2017 2:00 PM 73 63 1.12 0 13.12
3/17/2017 3:00 PM 75 60 1.45 0 13.15
3/17/2017 4:00 PM 75 61 1.58 0 13.08
3/17/2017 5:00 PM 76 58 1.34 0 13.23
3/17/2017 6:00 PM 76 59 0.61 0 11.31
3/17/2017 7:00 PM 76 58 0.44 0 10.24
3/17/2017 8:00 PM 75 58 0.04 0 8.13
3/17/2017 9:00 PM 74 57 0 0 5.16
3/17/2017 10:00 PM 73 64 0 0 4.91
3/17/2017 11:00 PM 73 63 0 0 5.54
Data Summary 70 68 10.29 0.00 11.00